Weather History for Eagle Creek, IN

Change the Weather History Date:

Sunday, October 28, 2012

  Actual Average Record
Temperature  
Mean Temperature 42 °F 51 °F  
Max Temperature 48 °F 60 °F 79 °F (1999)
Min Temperature 36 °F 42 °F 25 °F (1997)
Degree Days  
Heating Degree Days 23 14  
Month to date heating degree days 329 286  
Since 1 July heating degree days 430 347  
Cooling Degree Days 0 0  
Month to date cooling degree days 1 12  
Year to date cooling degree days 1339 1055  
Moisture  
Dew Point 31 °F    
Average Humidity 70    
Maximum Humidity 89    
Minimum Humidity 50    
Precipitation  
Precipitation 0.00 in 0.10 in 0.31 in (2014)
Month to date precipitation 4.38 2.84  
Year to date precipitation 33.64 33.74  
Sea Level Pressure  
Sea Level Pressure 30.16 in    
Wind  
Wind Speed 11 mph (North)    
Max Wind Speed 17 mph    
Max Gust Speed 24 mph    
Visibility 10 miles    
Events      
T = Trace of Precipitation, MM = Missing Value Source: NWS Daily Summary

Daily Weather History Graph

Daily Weather History Graph

Search for Another Location

Airport:

Trip Planner

Search our weather history database for the weather conditions in past years. The results will help you decide how hot, cold, wet, or windy it might be!

Date:

Astronomy

Oct. 28, 2012 Rise Set
Actual Time 8:10 AM EDT 6:47 PM EDT
Civil Twilight 7:42 AM EDT 7:15 PM EDT
Nautical Twilight 7:10 AM EDT 7:46 PM EDT
Astronomical Twilight 6:39 AM EDT 8:18 PM EDT
Moon 6:04 PM EDT 7:02 AM EDT
Length of Visible Light 11h 32m
Length of Day
10h 37m
Waxing Gibbous, 99% of the Moon is Illuminated
Oct 28
Waxing Gibbous
Oct 29
Full
Nov 6
Last Quarter
Nov 13
New
Nov 20
First Quarter

Hourly Weather History & Observations

Time (EDT) Temp. Windchill Dew Point Humidity Pressure Visibility Wind Dir Wind Speed Gust Speed Precip Events Conditions
12:53 AM 39.0 °F 34.0 °F 34.0 °F 82% 30.17 in 10.0 mi North 6.9 mph - N/A   Clear
1:53 AM 37.9 °F 32.7 °F 33.1 °F 83% 30.17 in 10.0 mi NNE 6.9 mph - N/A   Clear
2:53 AM 37.9 °F 30.9 °F 33.1 °F 83% 30.17 in 10.0 mi North 10.4 mph - N/A   Clear
3:53 AM 37.0 °F 31.6 °F 32.0 °F 82% 30.17 in 10.0 mi North 6.9 mph - N/A   Clear
4:53 AM 36.0 °F 30.3 °F 32.0 °F 86% 30.17 in 10.0 mi North 6.9 mph - N/A   Clear
5:53 AM 36.0 °F 30.3 °F 32.0 °F 86% 30.17 in 10.0 mi North 6.9 mph - N/A   Clear
6:53 AM 36.0 °F 28.5 °F 30.9 °F 82% 30.17 in 10.0 mi North 10.4 mph - N/A   Clear
7:53 AM 36.0 °F 28.0 °F 30.9 °F 82% 30.17 in 10.0 mi North 11.5 mph - N/A   Clear
8:53 AM 37.0 °F 30.4 °F 30.9 °F 79% 30.18 in 10.0 mi North 9.2 mph - N/A   Clear
9:53 AM 39.0 °F 32.8 °F 32.0 °F 76% 30.19 in 10.0 mi NNE 9.2 mph - N/A   Clear
10:53 AM 42.1 °F 35.2 °F 30.9 °F 65% 30.18 in 10.0 mi NNE 12.7 mph 19.6 mph N/A   Clear
11:53 AM 45.0 °F 37.6 °F 32.0 °F 60% 30.17 in 10.0 mi North 17.3 mph 21.9 mph N/A   Mostly Cloudy
1:53 PM 46.9 °F - 30.0 °F 52% 30.14 in 10.0 mi NNE 10.4 mph 20.7 mph N/A   Clear
2:53 PM 46.9 °F - 30.0 °F 52% 30.13 in 10.0 mi NNE 13.8 mph 24.2 mph N/A   Scattered Clouds
3:53 PM 46.9 °F - 32.0 °F 56% 30.13 in 10.0 mi NNW 16.1 mph - N/A   Mostly Cloudy
4:53 PM 46.0 °F 40.2 °F 30.9 °F 56% 30.14 in 10.0 mi North 12.7 mph 21.9 mph N/A   Overcast
5:53 PM 45.0 °F 38.9 °F 30.0 °F 56% 30.14 in 10.0 mi North 12.7 mph - N/A   Overcast
6:53 PM 45.0 °F 38.2 °F 28.9 °F 53% 30.15 in 10.0 mi North 15.0 mph 21.9 mph N/A   Overcast
7:53 PM 44.1 °F 37.7 °F 28.9 °F 55% 30.16 in 10.0 mi North 12.7 mph - N/A   Overcast
8:53 PM 44.1 °F 38.1 °F 30.0 °F 58% 30.16 in 10.0 mi North 11.5 mph - N/A   Overcast
9:53 PM 43.0 °F 37.2 °F 30.0 °F 60% 30.16 in 10.0 mi North 10.4 mph - N/A   Overcast
10:53 PM 42.1 °F 34.9 °F 28.9 °F 60% 30.15 in 10.0 mi North 13.8 mph 20.7 mph N/A   Overcast
11:53 PM 39.9 °F 33.9 °F 30.0 °F 68% 30.16 in 10.0 mi North 9.2 mph - N/A   Clear